Flag for Austria Weather past 2 weeks in Traun, Upper Austria, Austria

Now
39 °F

Passing clouds.


Feels Like: 28 °F
Forecast: 27 / 32 °F
Wind: 26 mph from West

Location: Linz / Hoersching-Flughafen

Current Time: Dec 26, 2014 at 2:03:13 AM

Latest Report: Dec 26, 2014 at 1:20 AM


Visibility: N/A

Pressure: 30.21 "Hg

Humidity: 70%

Dew point: 30 °F

Location of TraunLocation

Historic Weather in Traun — Graph

°F

Traun temperature yesterday

Maximum temperature yesterday: 45 °F (at 1:50 AM)
Minimum temperature yesterday: 39 °F (at 5:20 PM)
Average temperature yesterday: 42 °F

Past Weeks' High & Low Weather Summary

 TemperatureHumidityPressure
High57 °F (Dec 19, 1:50 PM)100% (Dec 11, 12:20 AM)30.48 "Hg (Dec 11, 12:20 AM)
Low27 °F (Dec 24, 4:20 AM)50% (Dec 12, 1:20 PM)29.83 "Hg (Dec 12, 2:20 PM)
Average41 °F81%30.09 "Hg
* Reported Dec 11 12:20 AM — Dec 26 12:50 AM, Traun, Weather by CustomWeather, © 2014

Note: Actual official high and low records may vary slightly from our data, if they occured in-between our weather recording intervals... More about our weather records

Advertising

Traun weather history for previous 24 hours

 ConditionsComfort  
Time TempWeatherWind HumidityBarometerVisibility
12:50 AM
Dec 26
39 °FLight rain. Partly cloudy.17 mph70%30.21 "HgN/A
12:20 AM39 °FPartly cloudy.14 mph70%30.21 "HgN/A
11:50 PM
Dec 25
39 °FPassing clouds.16 mph65%30.24 "HgN/A
11:20 PM39 °FPassing clouds.15 mph65%30.24 "HgN/A
10:50 PM39 °FPassing clouds.16 mph70%30.24 "HgN/A
10:20 PM39 °FSprinkles. Passing clouds.16 mph70%30.24 "HgN/A
9:50 PM39 °FDrizzle. Mostly cloudy.15 mph70%30.24 "HgN/A
9:20 PM41 °FOvercast.18 mph61%30.27 "HgN/A
8:50 PM39 °FPassing clouds.16 mph70%30.27 "HgN/A
8:20 PM39 °FPartly cloudy.12 mph75%30.27 "HgN/A
7:50 PM39 °FOvercast.12 mph75%30.24 "HgN/A
7:20 PM39 °FOvercast.13 mph75%30.24 "HgN/A
6:50 PM39 °FOvercast.13 mph75%30.24 "HgN/A
6:20 PM39 °FOvercast.12 mph75%30.24 "HgN/A
5:50 PM39 °FPartly cloudy.14 mph75%30.24 "HgN/A
5:20 PM39 °FPartly cloudy.14 mph75%30.24 "HgN/A
4:50 PM41 °FPartly cloudy.15 mph70%30.21 "HgN/A
4:20 PM41 °FPassing clouds.14 mph70%30.21 "HgN/A
3:50 PM41 °FPartly sunny.13 mph70%30.21 "HgN/A
3:20 PM41 °FBroken clouds.13 mph70%30.21 "HgN/A
2:50 PM41 °FBroken clouds.10 mph76%30.21 "HgN/A
2:20 PM41 °FBroken clouds.15 mph70%30.21 "HgN/A
1:50 PM41 °FBroken clouds.14 mph76%30.21 "HgN/A
1:20 PM41 °FBroken clouds.16 mph70%30.18 "HgN/A
12:50 PM43 °FPartly sunny.13 mph71%30.18 "HgN/A
12:20 PM41 °FBroken clouds.14 mph81%30.18 "HgN/A
11:50 AM41 °FBroken clouds.13 mph87%30.18 "HgN/A
11:20 AM41 °FSprinkles. Partly sunny.16 mph81%30.21 "HgN/A
10:50 AM41 °FSprinkles. Broken clouds.13 mph87%30.21 "HgN/A
10:20 AM41 °FSprinkles. Broken clouds.15 mph87%30.18 "HgN/A
9:50 AM45 °FSprinkles. Broken clouds.18 mph81%30.15 "HgN/A
9:20 AM45 °FSprinkles. Broken clouds.12 mph81%30.12 "HgN/A
8:50 AM45 °FBroken clouds.9 mph81%30.12 "HgN/A
8:20 AM45 °FBroken clouds.9 mph81%30.12 "HgN/A
7:50 AM45 °FPartly cloudy.9 mph87%30.15 "HgN/A
7:20 AM45 °FPartly cloudy.15 mph81%30.12 "HgN/A
6:50 AM45 °FPartly cloudy.14 mph87%30.12 "HgN/A
6:20 AM45 °FLight rain. Partly cloudy.16 mph87%30.12 "HgN/A
5:50 AM45 °FLight rain. Partly cloudy.12 mph81%30.12 "HgN/A
5:20 AM45 °FSprinkles. Partly cloudy.8 mph81%30.12 "HgN/A
4:50 AM43 °FSprinkles. Partly cloudy.7 mph87%30.12 "Hg6 mi
4:20 AM43 °FSprinkles. Partly cloudy.10 mph87%30.12 "HgN/A
3:50 AM41 °FLight rain. Passing clouds.7 mph93%30.12 "HgN/A
3:20 AM43 °FSprinkles. Partly cloudy.9 mph81%30.12 "HgN/A
2:50 AM43 °FSprinkles. Partly cloudy.14 mph81%30.15 "HgN/A
2:20 AM45 °FSprinkles. Passing clouds.9 mph71%30.15 "HgN/A
Weather by CustomWeather, © 2014

See weather overviewHow to use our weather pages